This is the latest recevied weather packets stored in our database for station/object NR6G-15. If no packets are shown the sender has not sent any weather packets the latest 10 day(s).
| Time | Temp. | Humidity | Pressure | Rain* | Wind** | Luminosity | Snow |
|---|---|---|---|---|---|---|---|
| 1788124600 | 20° C | 51% | 1022.2 hPa | 0 mm | - | - | - |
| 1788123631 | 19.44° C | 52% | 1022.3 hPa | 0 mm | - | - | - |
| 1788123331 | 19.44° C | 50% | 1022.1 hPa | 0 mm | - | - | - |
| 1788123031 | 19.44° C | 52% | 1022.2 hPa | 0 mm | - | - | - |
| 1788122730 | 20° C | 51% | 1022.2 hPa | 0 mm | - | - | - |
| 1788122431 | 20° C | 52% | 1022.3 hPa | 0 mm | - | - | - |
| 1788122131 | 19.44° C | 53% | 1022.3 hPa | 0 mm | - | - | - |
| 1788121830 | 19.44° C | 53% | 1022.3 hPa | 0 mm | - | - | - |
| 1788121531 | 18.89° C | 54% | 1022.3 hPa | 0 mm | - | - | - |
| 1788121230 | 18.89° C | 54% | 1022.3 hPa | 0 mm | - | - | - |
| 1788120931 | 19.44° C | 52% | 1022.2 hPa | 0 mm | - | - | - |
| 1788120630 | 19.44° C | 54% | 1022.3 hPa | 0 mm | - | - | - |
| 1788120331 | 19.44° C | 53% | 1022.4 hPa | 0 mm | - | - | - |
| 1788120031 | 19.44° C | 52% | 1022.4 hPa | 0 mm | - | - | - |
| 1788119730 | 19.44° C | 50% | 1022.3 hPa | 0 mm | - | - | - |
| 1788119430 | 19.44° C | 53% | 1022.3 hPa | 0 mm | - | - | - |
| 1788119130 | 19.44° C | 50% | 1022.3 hPa | 0 mm | - | - | - |
| 1788118830 | 19.44° C | 48% | 1022.5 hPa | 0 mm | - | - | - |
| 1788118530 | 20° C | 48% | 1022.4 hPa | 0 mm | - | - | - |
| 1788118230 | 19.44° C | 49% | 1022.4 hPa | 0 mm | - | - | - |
| 1788117930 | 19.44° C | 49% | 1022.4 hPa | 0 mm | - | - | - |
| 1788117630 | 19.44° C | 47% | 1022.5 hPa | 0 mm | - | - | - |
| 1788117330 | 19.44° C | 47% | 1022.5 hPa | 0 mm | - | - | - |
| 1788117030 | 18.89° C | 48% | 1022.5 hPa | 0 mm | - | - | - |
| 1788116730 | 18.89° C | 46% | 1022.5 hPa | 0 mm | - | - | - |
* Rain latest hour (hover to see other rain measurements)
** Current wind speed in m/s (hover to see current wind gust speed)